| time (UTC) | temp F | wind direction | speed knots | gust knots | rain 1hr in | rain 24hr in | rain mn in | humidity % | barometer mb |
| 20260510030815 | 48 | 87 | 0.0 | 0.9 | 0.00 | 0.00 | 0.00 | 86 | 1014.8 |
| 20260510030311 | 47 | 86 | 0.0 | 0.0 | 0.00 | 0.00 | 0.00 | 88 | 1014.8 |
| 20260510025809 | 47 | 131 | 0.0 | 0.0 | 0.00 | 0.00 | 0.00 | 87 | 1014.8 |
| 20260510025306 | 47 | 117 | 0.0 | 0.0 | 0.00 | 0.00 | 0.00 | 87 | 1014.8 |
| 20260510024803 | 48 | 145 | 0.0 | 0.0 | 0.00 | 0.00 | 0.00 | 86 | 1015.0 |
| 20260510024300 | 48 | 158 | 0.0 | 0.0 | 0.00 | 0.00 | 0.00 | 86 | 1015.0 |
| 20260510023755 | 48 | 81 | 0.0 | 0.0 | 0.00 | 0.00 | 0.00 | 85 | 1014.6 |
| 20260510023247 | 49 | 72 | 0.0 | 0.0 | 0.00 | 0.00 | 0.00 | 84 | 1014.7 |
| 20260510022744 | 49 | 108 | 0.0 | 1.7 | 0.00 | 0.00 | 0.00 | 84 | 1014.7 |
| 20260510022243 | 49 | 223 | 0.9 | 1.7 | 0.00 | 0.00 | 0.00 | 84 | 1014.6 |
| 20260510021742 | 49 | 131 | 0.0 | 0.0 | 0.00 | 0.00 | 0.00 | 83 | 1014.6 |
| 20260510021241 | 48 | 109 | 0.0 | 0.9 | 0.00 | 0.00 | 0.00 | 85 | 1014.6 |
| 20260510020737 | 49 | 81 | 0.0 | 0.0 | 0.00 | 0.00 | 0.00 | 85 | 1014.3 |
| 20260510020236 | 49 | 175 | 0.0 | 0.0 | 0.00 | 0.00 | 0.00 | 83 | 1014.3 |
| 20260510015733 | 49 | 106 | 0.0 | 0.0 | 0.00 | 0.00 | 0.00 | 83 | 1014.1 |
| 20260510015229 | 50 | 261 | 0.9 | 0.9 | 0.00 | 0.00 | 0.00 | 81 | 1014.2 |
| 20260510014724 | 50 | 95 | 0.0 | 0.0 | 0.00 | 0.00 | 0.00 | 82 | 1014.1 |
| 20260510014222 | 51 | 106 | 0.0 | 0.0 | 0.00 | 0.00 | 0.00 | 80 | 1013.9 |
| 20260510013717 | 49 | 116 | 0.0 | 0.0 | 0.00 | 0.00 | 0.00 | 83 | 1014.0 |
| 20260510013214 | 50 | 82 | 0.0 | 0.0 | 0.00 | 0.00 | 0.00 | 81 | 1013.7 |
| 20260510012713 | 51 | 92 | 0.0 | 0.0 | 0.00 | 0.00 | 0.00 | 80 | 1013.8 |
| 20260510012209 | 51 | 178 | 0.0 | 0.0 | 0.00 | 0.00 | 0.00 | 79 | 1013.6 |
| 20260510011704 | 52 | 112 | 0.0 | 0.0 | 0.00 | 0.00 | 0.00 | 78 | 1013.4 |
| 20260510011159 | 52 | 119 | 0.0 | 0.0 | 0.00 | 0.00 | 0.00 | 77 | 1013.5 |
| 20260510010656 | 52 | 58 | 0.0 | 0.0 | 0.00 | 0.00 | 0.00 | 77 | 1013.4 |
| 20260510010148 | 53 | 110 | 0.0 | 0.0 | 0.00 | 0.00 | 0.00 | 76 | 1013.4 |
| 20260510005644 | 53 | 271 | 0.0 | 0.0 | 0.00 | 0.00 | 0.00 | 76 | 1013.4 |
| 20260510005141 | 53 | 122 | 0.0 | 0.0 | 0.00 | 0.00 | 0.00 | 76 | 1013.2 |
| 20260510004639 | 53 | 125 | 0.0 | 0.0 | 0.00 | 0.00 | 0.00 | 75 | 1013.0 |
| 20260510004137 | 55 | 117 | 0.0 | 0.9 | 0.00 | 0.00 | 0.00 | 72 | 1012.8 |
| 20260510003634 | 55 | 204 | 0.0 | 0.9 | 0.00 | 0.00 | 0.00 | 72 | 1012.8 |
| 20260510003130 | 56 | 119 | 0.0 | 0.9 | 0.00 | 0.00 | 0.00 | 70 | 1012.7 |
| 20260510002629 | 56 | 93 | 0.0 | 0.9 | 0.00 | 0.00 | 0.00 | 68 | 1012.6 |
| 20260510002127 | 56 | 117 | 0.0 | 0.0 | 0.00 | 0.00 | 0.00 | 71 | 1012.6 |
| 20260510001623 | 56 | 145 | 0.0 | 0.0 | 0.00 | 0.00 | 0.00 | 68 | 1012.5 |
| 20260510001122 | 56 | 108 | 0.9 | 1.7 | 0.00 | 0.00 | 0.00 | 68 | 1012.3 |
| 20260510000622 | 58 | 141 | 0.0 | 0.0 | 0.00 | 0.00 | 0.00 | 68 | 1012.4 |
| 20260510000120 | 58 | 112 | 0.0 | 0.0 | 0.00 | 0.00 | 0.00 | 65 | 1012.3 |
| 20260509235616 | 59 | 137 | 0.0 | 0.0 | 0.00 | 0.00 | 0.00 | 62 | 1012.3 |
| 20260509235113 | 59 | 116 | 0.0 | 0.9 | 0.00 | 0.00 | 0.00 | 63 | 1012.3 |
| 20260509234609 | 60 | 159 | 0.0 | 0.0 | 0.00 | 0.00 | 0.00 | 59 | 1012.1 |
| 20260509234107 | 60 | 130 | 0.0 | 1.7 | 0.00 | 0.00 | 0.00 | 60 | 1012.1 |
| 20260509233604 | 62 | 209 | 0.9 | 1.7 | 0.00 | 0.00 | 0.00 | 58 | 1012.1 |
| 20260509233101 | 63 | 219 | 0.0 | 1.7 | 0.00 | 0.00 | 0.00 | 55 | 1012.2 |
| 20260509232557 | 64 | 290 | 0.9 | 2.6 | 0.00 | 0.00 | 0.00 | 50 | 1012.1 |
| 20260509232055 | 64 | 207 | 2.6 | 2.6 | 0.00 | 0.00 | 0.00 | 51 | 1012.2 |
| 20260509231551 | 66 | 290 | 2.6 | 3.5 | 0.00 | 0.00 | 0.00 | 50 | 1012.3 |
| 20260509231049 | 67 | 248 | 2.6 | 5.2 | 0.00 | 0.00 | 0.00 | 45 | 1012.4 |
| 20260509230545 | 67 | 203 | 3.5 | 6.1 | 0.00 | 0.00 | 0.00 | 45 | 1012.3 |
| 20260509230043 | 68 | 230 | 1.7 | 3.5 | 0.00 | 0.00 | 0.00 | 46 | 1012.4 |
| 20260509225538 | 68 | 137 | 1.7 | 6.1 | 0.00 | 0.00 | 0.00 | 47 | 1012.3 |
| 20260509225033 | 68 | 134 | 3.5 | 7.0 | 0.00 | 0.00 | 0.00 | 44 | 1012.5 |
| 20260509224529 | 67 | 177 | 5.2 | 7.0 | 0.00 | 0.00 | 0.00 | 45 | 1012.3 |
| 20260509224026 | 67 | 99 | 4.3 | 13.0 | 0.00 | 0.00 | 0.00 | 45 | 1012.1 |
| 20260509223523 | 68 | 187 | 0.9 | 2.6 | 0.00 | 0.00 | 0.00 | 47 | 1012.4 |
| 20260509223021 | 67 | 216 | 1.7 | 5.2 | 0.00 | 0.00 | 0.00 | 49 | 1012.3 |
| 20260509222517 | 67 | 206 | 4.3 | 7.0 | 0.00 | 0.00 | 0.00 | 49 | 1012.2 |
| 20260509222012 | 67 | 185 | 4.3 | 6.1 | 0.00 | 0.00 | 0.00 | 46 | 1012.2 |
| 20260509221509 | 68 | 214 | 2.6 | 5.2 | 0.00 | 0.00 | 0.00 | 47 | 1012.4 |
| 20260509221004 | 67 | 269 | 3.5 | 3.5 | 0.00 | 0.00 | 0.00 | 48 | 1012.3 |
| 20260509220501 | 67 | 217 | 6.1 | 8.7 | 0.00 | 0.00 | 0.00 | 47 | 1012.2 |
| 20260509215957 | 68 | 185 | 5.2 | 6.1 | 0.00 | 0.00 | 0.00 | 45 | 1012.0 |
| 20260509215452 | 68 | 189 | 2.6 | 2.6 | 0.00 | 0.00 | 0.00 | 44 | 1012.2 |
| 20260509214950 | 67 | 195 | 1.7 | 2.6 | 0.00 | 0.00 | 0.00 | 43 | 1011.9 |
| 20260509214447 | 68 | 283 | 0.9 | 6.1 | 0.00 | 0.00 | 0.00 | 46 | 1012.0 |
| 20260509213944 | 67 | 195 | 4.3 | 7.8 | 0.00 | 0.00 | 0.00 | 47 | 1012.1 |
| 20260509213440 | 69 | 264 | 3.5 | 5.2 | 0.00 | 0.00 | 0.00 | 44 | 1012.0 |
| 20260509212937 | 69 | 168 | 2.6 | 5.2 | 0.00 | 0.00 | 0.00 | 41 | 1011.8 |
| 20260509212435 | 68 | 230 | 3.5 | 3.5 | 0.00 | 0.00 | 0.00 | 43 | 1011.6 |
| 20260509211930 | 69 | 278 | 1.7 | 5.2 | 0.00 | 0.00 | 0.00 | 41 | 1011.6 |
| 20260509211426 | 70 | 258 | 4.3 | 6.1 | 0.00 | 0.00 | 0.00 | 41 | 1011.7 |
| 20260509210923 | 69 | 170 | 4.3 | 7.0 | 0.00 | 0.00 | 0.00 | 42 | 1011.4 |
| 20260509210420 | 69 | 214 | 3.5 | 5.2 | 0.00 | 0.00 | 0.00 | 44 | 1011.2 |
| 20260509205915 | 71 | 203 | 0.9 | 6.1 | 0.00 | 0.00 | 0.00 | 43 | 1011.5 |
| 20260509205415 | 69 | 224 | 5.2 | 7.0 | 0.00 | 0.00 | 0.00 | 41 | 1011.2 |
| 20260509204911 | 68 | 209 | 1.7 | 8.7 | 0.00 | 0.00 | 0.00 | 43 | 1011.2 |
| 20260509204408 | 67 | 233 | 4.3 | 9.6 | 0.00 | 0.00 | 0.00 | 40 | 1011.1 |
| 20260509203904 | 67 | 168 | 6.1 | 7.8 | 0.00 | 0.00 | 0.00 | 40 | 1010.9 |
| 20260509203401 | 68 | 195 | 1.7 | 5.2 | 0.00 | 0.00 | 0.00 | 43 | 1011.0 |
| 20260509202858 | 68 | 193 | 6.1 | 7.0 | 0.00 | 0.00 | 0.00 | 40 | 1010.9 |
| 20260509202354 | 68 | 211 | 3.5 | 9.6 | 0.00 | 0.00 | 0.00 | 40 | 1010.9 |
| 20260509201849 | 69 | 176 | 5.2 | 12.2 | 0.00 | 0.00 | 0.00 | 39 | 1010.9 |
| 20260509201345 | 69 | 278 | 5.2 | 7.8 | 0.00 | 0.00 | 0.00 | 37 | 1010.9 |
| 20260509200842 | 70 | 170 | 8.7 | 11.3 | 0.00 | 0.00 | 0.00 | 39 | 1010.9 |
| 20260509200336 | 70 | 233 | 2.6 | 3.5 | 0.00 | 0.00 | 0.00 | 39 | 1010.9 |
| 20260509195834 | 70 | 156 | 7.0 | 11.3 | 0.00 | 0.00 | 0.00 | 38 | 1011.1 |
| 20260509195333 | 69 | 183 | 9.6 | 13.0 | 0.00 | 0.00 | 0.00 | 39 | 1010.9 |
| 20260509194828 | 69 | 217 | 3.5 | 7.0 | 0.00 | 0.00 | 0.00 | 39 | 1010.9 |
| 20260509194324 | 69 | 241 | 5.2 | 8.7 | 0.00 | 0.00 | 0.00 | 42 | 1011.1 |
| 20260509193821 | 69 | 203 | 2.6 | 7.0 | 0.00 | 0.00 | 0.00 | 41 | 1011.0 |
| 20260509193321 | 69 | 206 | 7.0 | 11.3 | 0.00 | 0.00 | 0.00 | 40 | 1010.9 |
| 20260509192817 | 68 | 225 | 2.6 | 5.2 | 0.00 | 0.00 | 0.00 | 43 | 1011.0 |
| 20260509192313 | 68 | 288 | 2.6 | 7.8 | 0.00 | 0.00 | 0.00 | 40 | 1010.9 |
| 20260509191808 | 68 | 215 | 2.6 | 5.2 | 0.00 | 0.00 | 0.00 | 46 | 1011.0 |
| 20260509191305 | 69 | 144 | 6.1 | 9.6 | 0.00 | 0.00 | 0.00 | 40 | 1011.4 |
| 20260509190800 | 70 | 215 | 1.7 | 3.5 | 0.00 | 0.00 | 0.00 | 45 | 1011.4 |
| 20260509190258 | 69 | 58 | 0.0 | 3.5 | 0.00 | 0.00 | 0.00 | 40 | 1011.1 |
| 20260509185755 | 67 | 227 | 1.7 | 5.2 | 0.00 | 0.00 | 0.00 | 47 | 1011.4 |
| 20260509185251 | 67 | 206 | 3.5 | 7.0 | 0.00 | 0.00 | 0.00 | 49 | 1011.4 |
| 20260509184749 | 67 | 209 | 1.7 | 6.1 | 0.00 | 0.00 | 0.00 | 41 | 1011.4 |
| 20260509184246 | 67 | 229 | 3.5 | 6.1 | 0.00 | 0.00 | 0.00 | 45 | 1011.2 |
| 20260509183742 | 69 | 179 | 5.2 | 6.1 | 0.00 | 0.00 | 0.00 | 47 | 1011.2 |
| 20260509183238 | 70 | 263 | 4.3 | 8.7 | 0.00 | 0.00 | 0.00 | 44 | 1011.4 |
| 20260509182734 | 69 | 272 | 2.6 | 11.3 | 0.00 | 0.00 | 0.00 | 43 | 1011.4 |
| 20260509182231 | 68 | 6 | 2.6 | 7.8 | 0.00 | 0.00 | 0.00 | 45 | 1011.5 |
| 20260509181728 | 70 | 222 | 5.2 | 11.3 | 0.00 | 0.00 | 0.00 | 48 | 1011.4 |
| 20260509181225 | 69 | 156 | 2.6 | 3.5 | 0.00 | 0.00 | 0.00 | 45 | 1011.7 |
| 20260509180722 | 67 | 241 | 0.9 | 6.1 | 0.00 | 0.00 | 0.00 | 51 | 1011.8 |
| 20260509180219 | 67 | 307 | 1.7 | 2.6 | 0.00 | 0.00 | 0.00 | 46 | 1011.9 |
| 20260509175715 | 67 | 181 | 3.5 | 6.1 | 0.00 | 0.00 | 0.00 | 45 | 1011.8 |
| 20260509175212 | 67 | 234 | 2.6 | 6.1 | 0.00 | 0.00 | 0.00 | 51 | 1011.8 |
| 20260509174707 | 67 | 220 | 4.3 | 8.7 | 0.00 | 0.00 | 0.00 | 49 | 1011.8 |
| 20260509174202 | 67 | 271 | 1.7 | 5.2 | 0.00 | 0.00 | 0.00 | 52 | 1012.1 |
| 20260509173659 | 67 | 181 | 2.6 | 2.6 | 0.00 | 0.00 | 0.00 | 53 | 1012.1 |
| 20260509173155 | 66 | 214 | 0.9 | 2.6 | 0.00 | 0.00 | 0.00 | 49 | 1012.2 |
| 20260509172651 | 65 | 348 | 1.7 | 1.7 | 0.00 | 0.00 | 0.00 | 53 | 1012.3 |
| 20260509172147 | 65 | 356 | 0.9 | 1.7 | 0.00 | 0.00 | 0.00 | 50 | 1012.4 |
| 20260509171643 | 65 | 22 | 0.9 | 1.7 | 0.00 | 0.00 | 0.00 | 51 | 1012.4 |
| 20260509171140 | 65 | 279 | 1.7 | 2.6 | 0.00 | 0.00 | 0.00 | 50 | 1012.4 |
| 20260509170636 | 64 | 355 | 0.9 | 1.7 | 0.00 | 0.00 | 0.00 | 55 | 1012.6 |
| 20260509170132 | 65 | 324 | 0.0 | 0.0 | 0.00 | 0.00 | 0.00 | 49 | 1012.8 |
| 20260509165631 | 64 | 104 | 0.0 | 1.7 | 0.00 | 0.00 | 0.00 | 50 | 1012.6 |
| 20260509165127 | 63 | 13 | 0.9 | 1.7 | 0.00 | 0.00 | 0.00 | 57 | 1012.5 |
| 20260509164623 | 62 | 36 | 1.7 | 3.5 | 0.00 | 0.00 | 0.00 | 54 | 1012.6 |
| 20260509164119 | 62 | 25 | 1.7 | 2.6 | 0.00 | 0.00 | 0.00 | 53 | 1012.6 |
| 20260509163617 | 62 | 48 | 3.5 | 3.5 | 0.00 | 0.00 | 0.00 | 54 | 1012.6 |
| 20260509163112 | 62 | 57 | 0.9 | 3.5 | 0.00 | 0.00 | 0.00 | 54 | 1012.7 |
| 20260509162610 | 61 | 45 | 0.0 | 0.0 | 0.00 | 0.00 | 0.00 | 55 | 1012.8 |
| 20260509162105 | 61 | 73 | 1.7 | 2.6 | 0.00 | 0.00 | 0.00 | 57 | 1012.8 |
| 20260509161602 | 61 | 44 | 0.9 | 0.9 | 0.00 | 0.00 | 0.00 | 58 | 1012.7 |
| 20260509161056 | 61 | 76 | 0.9 | 1.7 | 0.00 | 0.00 | 0.00 | 57 | 1012.9 |
| 20260509160553 | 61 | 24 | 2.6 | 2.6 | 0.00 | 0.00 | 0.00 | 56 | 1012.6 |
| 20260509160048 | 61 | 13 | 1.7 | 2.6 | 0.00 | 0.00 | 0.00 | 56 | 1012.7 |
| 20260509155544 | 62 | 2 | 1.7 | 1.7 | 0.00 | 0.00 | 0.00 | 55 | 1012.6 |
| 20260509155041 | 62 | 12 | 1.7 | 2.6 | 0.00 | 0.00 | 0.00 | 54 | 1012.6 |
| 20260509154537 | 63 | 3 | 0.0 | 1.7 | 0.00 | 0.00 | 0.00 | 52 | 1012.5 |
| 20260509154035 | 64 | 25 | 0.0 | 1.7 | 0.00 | 0.00 | 0.00 | 52 | 1012.3 |
| 20260509153531 | 64 | 335 | 2.6 | 5.2 | 0.00 | 0.00 | 0.00 | 53 | 1012.3 |
| 20260509153028 | 64 | 267 | 0.9 | 2.6 | 0.00 | 0.00 | 0.00 | 51 | 1012.5 |
| 20260509152524 | 64 | 277 | 0.9 | 2.6 | 0.00 | 0.00 | 0.00 | 49 | 1012.4 |
| 20260509152021 | 64 | 128 | 0.9 | 1.7 | 0.00 | 0.00 | 0.00 | 48 | 1012.3 |
| 20260509151518 | 64 | 202 | 2.6 | 3.5 | 0.00 | 0.00 | 0.00 | 52 | 1012.3 |
| 20260509151016 | 64 | 273 | 0.9 | 2.6 | 0.00 | 0.00 | 0.00 | 52 | 1012.1 |
| 20260509150513 | 64 | 309 | 0.0 | 0.9 | 0.00 | 0.00 | 0.00 | 50 | 1012.2 |
| 20260509150011 | 64 | 325 | 1.7 | 2.6 | 0.00 | 0.00 | 0.00 | 51 | 1012.3 |
| 20260509145507 | 64 | 322 | 0.9 | 1.7 | 0.00 | 0.00 | 0.00 | 49 | 1012.3 |
| 20260509145001 | 63 | 24 | 0.9 | 0.9 | 0.00 | 0.00 | 0.00 | 49 | 1012.4 |
| 20260509144459 | 63 | 107 | 0.0 | 2.6 | 0.00 | 0.00 | 0.00 | 52 | 1012.5 |
| 20260509143955 | 63 | 284 | 0.0 | 3.5 | 0.00 | 0.00 | 0.00 | 50 | 1012.5 |
| 20260509143452 | 62 | 236 | 0.0 | 0.9 | 0.00 | 0.00 | 0.00 | 53 | 1012.5 |
| 20260509142949 | 62 | 246 | 3.5 | 5.2 | 0.00 | 0.00 | 0.00 | 51 | 1012.4 |
| 20260509142446 | 62 | 243 | 1.7 | 5.2 | 0.00 | 0.00 | 0.00 | 53 | 1012.6 |
| 20260509141941 | 64 | 36 | 0.0 | 3.5 | 0.00 | 0.00 | 0.00 | 49 | 1012.1 |
| 20260509141438 | 65 | 236 | 1.7 | 1.7 | 0.00 | 0.00 | 0.00 | 51 | 1012.3 |
| 20260509140935 | 62 | 282 | 0.0 | 0.9 | 0.00 | 0.00 | 0.00 | 51 | 1012.5 |
| 20260509140431 | 62 | 175 | 4.3 | 5.2 | 0.00 | 0.00 | 0.00 | 52 | 1012.6 |
| 20260509135930 | 62 | 218 | 3.5 | 5.2 | 0.00 | 0.00 | 0.00 | 59 | 1012.8 |
| 20260509135427 | 62 | 302 | 1.7 | 3.5 | 0.00 | 0.00 | 0.00 | 50 | 1012.7 |
| 20260509134924 | 60 | 197 | 0.9 | 2.6 | 0.00 | 0.00 | 0.00 | 56 | 1013.0 |
| 20260509134421 | 60 | 199 | 2.6 | 5.2 | 0.00 | 0.00 | 0.00 | 59 | 1013.0 |
| 20260509133919 | 60 | 180 | 1.7 | 2.6 | 0.00 | 0.00 | 0.00 | 56 | 1013.0 |
| 20260509133415 | 59 | 259 | 0.9 | 2.6 | 0.00 | 0.00 | 0.00 | 65 | 1013.2 |
| 20260509132914 | 58 | 187 | 0.0 | 3.5 | 0.00 | 0.00 | 0.00 | 61 | 1013.4 |
| 20260509132411 | 58 | 243 | 1.7 | 2.6 | 0.00 | 0.00 | 0.00 | 65 | 1013.4 |
| 20260509131908 | 57 | 220 | 2.6 | 5.2 | 0.00 | 0.00 | 0.00 | 64 | 1013.2 |
| 20260509131405 | 56 | 247 | 1.7 | 3.5 | 0.00 | 0.00 | 0.00 | 68 | 1013.4 |
| 20260509130902 | 56 | 191 | 1.7 | 5.2 | 0.00 | 0.00 | 0.00 | 66 | 1013.5 |
| 20260509130357 | 55 | 323 | 0.0 | 0.9 | 0.00 | 0.00 | 0.00 | 71 | 1013.6 |
| 20260509125854 | 55 | 101 | 0.0 | 0.9 | 0.00 | 0.00 | 0.00 | 71 | 1013.4 |
| 20260509125350 | 54 | 82 | 0.9 | 1.7 | 0.00 | 0.00 | 0.00 | 73 | 1013.7 |
| 20260509124847 | 54 | 53 | 0.0 | 1.7 | 0.00 | 0.00 | 0.00 | 73 | 1013.5 |
| 20260509124344 | 54 | 231 | 0.0 | 0.9 | 0.00 | 0.00 | 0.00 | 72 | 1013.4 |
| 20260509123842 | 53 | 53 | 0.0 | 0.0 | 0.00 | 0.00 | 0.00 | 73 | 1013.3 |
| 20260509123339 | 53 | 53 | 0.0 | 0.0 | 0.00 | 0.00 | 0.00 | 75 | 1013.5 |
| 20260509122835 | 52 | 53 | 0.0 | 0.0 | 0.00 | 0.00 | 0.00 | 73 | 1013.5 |
| 20260509122332 | 52 | 53 | 0.0 | 0.0 | 0.00 | 0.00 | 0.00 | 75 | 1013.4 |
| 20260509121829 | 51 | 54 | 0.0 | 0.0 | 0.00 | 0.00 | 0.00 | 75 | 1013.4 |
| 20260509121326 | 51 | 56 | 0.9 | 0.9 | 0.00 | 0.00 | 0.00 | 76 | 1013.4 |
| 20260509120824 | 51 | 54 | 0.0 | 0.0 | 0.00 | 0.00 | 0.00 | 77 | 1013.4 |
| 20260509120321 | 50 | 46 | 0.0 | 0.0 | 0.00 | 0.00 | 0.00 | 80 | 1013.4 |
| 20260509115819 | 50 | 46 | 0.0 | 0.0 | 0.00 | 0.00 | 0.00 | 80 | 1013.4 |
| 20260509115316 | 50 | 44 | 0.9 | 1.7 | 0.00 | 0.00 | 0.00 | 79 | 1013.5 |
| 20260509114814 | 49 | 41 | 0.9 | 1.7 | 0.00 | 0.00 | 0.00 | 80 | 1013.6 |
| 20260509114312 | 49 | 37 | 0.0 | 0.9 | 0.00 | 0.00 | 0.00 | 81 | 1013.7 |
| 20260509113811 | 49 | 36 | 0.0 | 0.9 | 0.00 | 0.00 | 0.00 | 81 | 1013.7 |
| 20260509113307 | 49 | 13 | 0.0 | 0.0 | 0.00 | 0.00 | 0.00 | 82 | 1013.9 |
| 20260509112805 | 48 | 54 | 0.0 | 1.7 | 0.00 | 0.00 | 0.00 | 83 | 1013.6 |
| 20260509112306 | 48 | 38 | 0.9 | 1.7 | 0.00 | 0.00 | 0.00 | 81 | 1013.8 |
| 20260509111759 | 48 | 53 | 0.9 | 0.9 | 0.00 | 0.00 | 0.00 | 80 | 1013.4 |
| 20260509111255 | 48 | 71 | 0.0 | 0.0 | 0.00 | 0.00 | 0.00 | 81 | 1013.6 |
| 20260509110753 | 48 | 72 | 0.0 | 0.0 | 0.00 | 0.00 | 0.00 | 81 | 1013.6 |
| 20260509110249 | 47 | 74 | 0.0 | 0.0 | 0.00 | 0.00 | 0.00 | 82 | 1013.5 |
| 20260509105748 | 47 | 75 | 0.0 | 1.7 | 0.00 | 0.00 | 0.00 | 81 | 1013.6 |
| 20260509105245 | 47 | 73 | 0.0 | 0.0 | 0.00 | 0.00 | 0.00 | 83 | 1013.5 |
| 20260509104741 | 47 | 86 | 0.0 | 0.0 | 0.00 | 0.00 | 0.00 | 81 | 1013.8 |
| 20260509104238 | 46 | 103 | 0.0 | 0.0 | 0.00 | 0.00 | 0.00 | 81 | 1013.6 |
| 20260509103737 | 46 | 104 | 0.0 | 0.0 | 0.00 | 0.00 | 0.00 | 81 | 1013.6 |
| 20260509103233 | 46 | 100 | 0.0 | 0.0 | 0.00 | 0.00 | 0.00 | 83 | 1013.5 |
| 20260509102732 | 46 | 101 | 0.0 | 0.0 | 0.00 | 0.00 | 0.00 | 81 | 1013.5 |
| 20260509102228 | 46 | 90 | 0.0 | 0.0 | 0.00 | 0.00 | 0.00 | 82 | 1013.6 |
| 20260509101725 | 45 | 90 | 0.0 | 0.0 | 0.00 | 0.00 | 0.00 | 82 | 1013.6 |
| 20260509101222 | 45 | 90 | 0.0 | 0.0 | 0.00 | 0.00 | 0.00 | 82 | 1013.6 |
| 20260509100719 | 45 | 91 | 0.0 | 0.0 | 0.00 | 0.00 | 0.00 | 82 | 1013.4 |
| 20260509100216 | 45 | 93 | 0.0 | 0.0 | 0.00 | 0.00 | 0.00 | 82 | 1013.4 |
| 20260509095713 | 45 | 93 | 0.0 | 0.0 | 0.00 | 0.00 | 0.00 | 82 | 1013.4 |
| 20260509095210 | 45 | 93 | 0.0 | 0.0 | 0.00 | 0.00 | 0.00 | 82 | 1013.6 |
| 20260509094707 | 46 | 93 | 0.0 | 0.0 | 0.00 | 0.00 | 0.00 | 82 | 1013.6 |
| 20260509094203 | 46 | 93 | 0.0 | 0.0 | 0.00 | 0.00 | 0.00 | 81 | 1013.5 |
| 20260509093702 | 46 | 93 | 0.0 | 0.0 | 0.00 | 0.00 | 0.00 | 81 | 1013.6 |
| 20260509093158 | 46 | 93 | 0.0 | 0.0 | 0.00 | 0.00 | 0.00 | 81 | 1013.5 |
| 20260509092656 | 46 | 93 | 0.0 | 0.0 | 0.00 | 0.00 | 0.00 | 81 | 1013.7 |
| 20260509092155 | 46 | 93 | 0.0 | 0.0 | 0.00 | 0.00 | 0.00 | 80 | 1013.8 |
| 20260509091653 | 46 | 93 | 0.0 | 0.0 | 0.00 | 0.00 | 0.00 | 79 | 1013.9 |
| 20260509091148 | 47 | 93 | 0.0 | 0.0 | 0.00 | 0.00 | 0.00 | 78 | 1013.8 |
| 20260509090646 | 46 | 78 | 0.0 | 0.0 | 0.00 | 0.00 | 0.00 | 79 | 1013.7 |
| 20260509090143 | 47 | 56 | 0.0 | 0.9 | 0.00 | 0.00 | 0.00 | 78 | 1013.8 |
| 20260509085641 | 47 | 104 | 0.0 | 0.0 | 0.00 | 0.00 | 0.00 | 78 | 1013.9 |
| 20260509085137 | 47 | 106 | 0.0 | 0.0 | 0.00 | 0.00 | 0.00 | 77 | 1013.9 |
| 20260509084635 | 48 | 112 | 0.0 | 0.0 | 0.00 | 0.00 | 0.00 | 75 | 1013.9 |
| 20260509084131 | 48 | 134 | 0.0 | 0.0 | 0.00 | 0.00 | 0.00 | 77 | 1013.9 |
| 20260509083629 | 47 | 67 | 0.0 | 0.0 | 0.00 | 0.00 | 0.00 | 77 | 1013.9 |
| 20260509083125 | 47 | 67 | 0.0 | 0.0 | 0.00 | 0.00 | 0.00 | 78 | 1014.1 |
| 20260509082623 | 48 | 69 | 0.0 | 0.0 | 0.00 | 0.00 | 0.00 | 77 | 1014.1 |
| 20260509082119 | 48 | 110 | 0.0 | 0.0 | 0.00 | 0.00 | 0.00 | 74 | 1014.1 |
| 20260509081616 | 48 | 196 | 0.0 | 0.0 | 0.00 | 0.00 | 0.00 | 73 | 1014.1 |
| 20260509081114 | 48 | 204 | 0.9 | 1.7 | 0.00 | 0.00 | 0.00 | 74 | 1014.2 |
| 20260509080612 | 48 | 146 | 1.7 | 2.6 | 0.00 | 0.00 | 0.00 | 73 | 1013.9 |
| 20260509080109 | 48 | 199 | 0.9 | 1.7 | 0.00 | 0.00 | 0.00 | 73 | 1013.8 |
| 20260509075607 | 48 | 191 | 0.0 | 2.6 | 0.00 | 0.00 | 0.00 | 72 | 1013.8 |
| 20260509075104 | 48 | 177 | 1.7 | 3.5 | 0.00 | 0.00 | 0.00 | 72 | 1014.1 |
| 20260509074600 | 48 | 162 | 0.9 | 1.7 | 0.00 | 0.00 | 0.00 | 74 | 1014.1 |
| 20260509074051 | 47 | 139 | 0.9 | 3.5 | 0.00 | 0.00 | 0.00 | 72 | 1014.2 |
| 20260509073548 | 47 | 149 | 0.9 | 0.9 | 0.00 | 0.00 | 0.00 | 76 | 1013.9 |
| 20260509073044 | 47 | 135 | 0.0 | 0.0 | 0.00 | 0.00 | 0.00 | 78 | 1014.1 |
| 20260509072540 | 47 | 5 | 0.0 | 0.0 | 0.00 | 0.00 | 0.00 | 78 | 1014.0 |
| 20260509072038 | 47 | 98 | 0.0 | 0.0 | 0.00 | 0.00 | 0.00 | 78 | 1014.2 |
| 20260509071534 | 47 | 70 | 0.0 | 0.0 | 0.00 | 0.00 | 0.00 | 77 | 1014.1 |
| 20260509071032 | 47 | 324 | 0.0 | 0.0 | 0.00 | 0.00 | 0.00 | 78 | 1014.3 |
| 20260509070529 | 47 | 324 | 0.0 | 0.0 | 0.00 | 0.00 | 0.00 | 76 | 1014.3 |
| 20260509070025 | 47 | 171 | 0.9 | 2.6 | 0.00 | 0.00 | 0.00 | 75 | 1014.3 |
| 20260509065520 | 47 | 214 | 0.9 | 1.7 | 0.00 | 0.00 | 0.00 | 75 | 1014.4 |
| 20260509065017 | 46 | 186 | 2.6 | 2.6 | 0.00 | 0.00 | 0.00 | 78 | 1014.4 |
| 20260509064515 | 45 | 61 | 0.9 | 0.9 | 0.00 | 0.00 | 0.00 | 80 | 1014.5 |
| 20260509064013 | 45 | 59 | 0.0 | 0.0 | 0.00 | 0.00 | 0.00 | 79 | 1014.4 |
| 20260509063508 | 45 | 60 | 0.0 | 0.9 | 0.00 | 0.00 | 0.00 | 81 | 1014.5 |
| 20260509063005 | 45 | 191 | 0.0 | 1.7 | 0.00 | 0.00 | 0.00 | 78 | 1014.4 |
| 20260509062502 | 44 | 166 | 0.0 | 0.9 | 0.00 | 0.00 | 0.00 | 81 | 1014.5 |
| 20260509062000 | 44 | 95 | 0.0 | 0.0 | 0.00 | 0.00 | 0.00 | 82 | 1014.6 |
| 20260509061457 | 44 | 70 | 0.0 | 0.0 | 0.00 | 0.00 | 0.00 | 81 | 1014.5 |
| 20260509060954 | 43 | 119 | 0.0 | 0.0 | 0.00 | 0.00 | 0.00 | 82 | 1015.0 |
| 20260509060452 | 43 | 120 | 0.0 | 0.0 | 0.00 | 0.00 | 0.00 | 82 | 1014.7 |
| 20260509055947 | 43 | 103 | 0.0 | 0.0 | 0.00 | 0.00 | 0.00 | 82 | 1014.7 |
| 20260509055442 | 43 | 116 | 0.0 | 0.0 | 0.00 | 0.00 | 0.00 | 81 | 1014.7 |
| 20260509054939 | 43 | 85 | 0.0 | 0.0 | 0.00 | 0.00 | 0.00 | 81 | 1014.6 |
| 20260509054436 | 44 | 85 | 0.0 | 0.0 | 0.00 | 0.00 | 0.00 | 81 | 1014.8 |
| 20260509053934 | 43 | 163 | 0.0 | 0.0 | 0.00 | 0.00 | 0.00 | 81 | 1014.8 |
| 20260509053432 | 44 | 186 | 0.0 | 0.9 | 0.00 | 0.00 | 0.00 | 81 | 1015.2 |
| 20260509052929 | 44 | 150 | 0.0 | 0.0 | 0.00 | 0.00 | 0.00 | 80 | 1015.0 |
| 20260509052426 | 44 | 148 | 0.0 | 0.0 | 0.00 | 0.00 | 0.00 | 78 | 1015.1 |
| 20260509051924 | 45 | 114 | 0.0 | 0.0 | 0.00 | 0.00 | 0.00 | 77 | 1015.0 |
| 20260509051422 | 44 | 119 | 0.0 | 0.0 | 0.00 | 0.00 | 0.00 | 79 | 1015.1 |
| 20260509050918 | 45 | 132 | 0.0 | 0.0 | 0.00 | 0.00 | 0.00 | 77 | 1015.1 |
| 20260509050415 | 45 | 211 | 0.0 | 0.0 | 0.00 | 0.00 | 0.00 | 76 | 1015.0 |
| 20260509045912 | 46 | 215 | 0.0 | 0.0 | 0.00 | 0.00 | 0.00 | 75 | 1015.1 |
| 20260509045409 | 46 | 136 | 0.0 | 0.9 | 0.00 | 0.00 | 0.00 | 74 | 1015.1 |
| 20260509044906 | 45 | 135 | 0.0 | 0.0 | 0.00 | 0.00 | 0.00 | 76 | 1015.1 |
| 20260509044404 | 46 | 132 | 0.0 | 0.0 | 0.00 | 0.00 | 0.00 | 75 | 1015.0 |
| 20260509043900 | 46 | 134 | 0.0 | 0.0 | 0.00 | 0.00 | 0.00 | 75 | 1015.1 |
| 20260509043356 | 47 | 155 | 0.0 | 0.9 | 0.00 | 0.00 | 0.00 | 74 | 1015.2 |
| 20260509042852 | 47 | 203 | 0.0 | 0.0 | 0.00 | 0.00 | 0.00 | 73 | 1015.0 |
| 20260509042349 | 48 | 143 | 0.0 | 0.9 | 0.00 | 0.00 | 0.00 | 70 | 1015.1 |
| 20260509041845 | 48 | 122 | 0.0 | 0.0 | 0.00 | 0.00 | 0.00 | 70 | 1015.0 |
| 20260509041342 | 49 | 134 | 0.0 | 0.0 | 0.00 | 0.00 | 0.00 | 68 | 1015.1 |
| 20260509040841 | 50 | 204 | 0.9 | 2.6 | 0.00 | 0.00 | 0.00 | 65 | 1015.0 |
| 20260509040338 | 49 | 189 | 0.0 | 0.0 | 0.00 | 0.00 | 0.00 | 69 | 1015.0 |
| 20260509035835 | 49 | 130 | 0.0 | 0.9 | 0.00 | 0.00 | 0.00 | 70 | 1015.0 |
| 20260509035332 | 49 | 132 | 0.0 | 0.0 | 0.00 | 0.00 | 0.00 | 69 | 1015.0 |
| 20260509034828 | 50 | 121 | 0.9 | 0.9 | 0.00 | 0.00 | 0.00 | 70 | 1015.0 |
| 20260509034326 | 50 | 162 | 0.0 | 0.9 | 0.00 | 0.00 | 0.00 | 68 | 1015.0 |
| 20260509033822 | 50 | 78 | 0.0 | 0.9 | 0.00 | 0.00 | 0.00 | 67 | 1015.0 |
| 20260509033320 | 49 | 180 | 0.9 | 1.7 | 0.00 | 0.00 | 0.00 | 70 | 1014.7 |
| 20260509032816 | 49 | 131 | 0.0 | 0.0 | 0.00 | 0.00 | 0.00 | 72 | 1014.8 |
| 20260509032314 | 48 | 125 | 0.0 | 0.0 | 0.00 | 0.00 | 0.00 | 73 | 1015.0 |
| 20260509031812 | 48 | 187 | 0.0 | 0.0 | 0.00 | 0.00 | 0.00 | 74 | 1015.0 |
| 20260509031309 | 49 | 97 | 0.0 | 0.0 | 0.00 | 0.00 | 0.00 | 73 | 1015.0 |